Location: Zagreb
(45.8000°N, 16.0000°E)
Time: 14:42:19
(UTC+02:00)

Transit 2A Rocket - Pass Details

Date: 13 August 2022
Orbit: 593 x 907 km, 66.7° (Epoch: 25 September)

Event Time Altitude Azimuth Distance (km) Brightness Sun altitude
Rises 03:39:15 0° 327° (NNW) 2,856 8.2 -19.7°
Reaches altitude 10° 03:41:28 10° 328° (NNW) 1,967 7.3 -19.5°
Maximum altitude 03:45:52 83° 56° (NE) 643 4.6 -19.0°
Drops below altitude 10° 03:50:33 10° 145° (SE) 2,086 7.1 -18.4°
Sets 03:52:57 0° 147° (SSE) 3,044 8.0 -18.1°
